| time (UTC) | temp F | wind direction | speed MPH | gust MPH | rain 1hr in | rain 24hr in | rain mn in | humidity % | barometer mb |
| 20260503195504 | 62 | 169 | 10.0 | 23.0 | 0.00 | 0.00 | 0.00 | 46 | 1013.3 |
| 20260503194005 | 62 | 197 | 12.0 | 20.0 | 0.00 | 0.00 | 0.00 | 46 | 1013.8 |
| 20260503191505 | 62 | 198 | 10.0 | 20.0 | 0.00 | 0.00 | 0.00 | 46 | 1014.4 |
| 20260503191004 | 62 | 213 | 11.0 | 18.0 | 0.00 | 0.00 | 0.00 | 46 | 1014.3 |
| 20260503190004 | 63 | 188 | 13.0 | 24.0 | 0.00 | 0.00 | 0.00 | 43 | 1014.1 |
| 20260503185504 | 63 | 189 | 12.0 | 20.0 | 0.00 | 0.00 | 0.00 | 43 | 1014.3 |
| 20260503184504 | 63 | 184 | 12.0 | 23.0 | 0.00 | 0.00 | 0.00 | 45 | 1014.3 |
| 20260503181505 | 64 | 201 | 10.0 | 20.0 | 0.00 | 0.00 | 0.00 | 46 | 1015.2 |
| 20260503181004 | 63 | 192 | 9.0 | 20.0 | 0.00 | 0.00 | 0.00 | 47 | 1015.2 |
| 20260503180504 | 63 | 215 | 10.0 | 22.0 | 0.00 | 0.00 | 0.00 | 49 | 1015.2 |
| 20260503180004 | 63 | 199 | 13.0 | 22.0 | 0.00 | 0.00 | 0.00 | 47 | 1015.3 |
| 20260503175004 | 63 | 205 | 12.0 | 23.0 | 0.00 | 0.00 | 0.00 | 50 | 1015.6 |
| 20260503174504 | 62 | 176 | 14.0 | 23.0 | 0.00 | 0.00 | 0.00 | 48 | 1015.7 |
| 20260503174004 | 62 | 198 | 12.0 | 22.0 | 0.00 | 0.00 | 0.00 | 50 | 1016.0 |
| 20260503172504 | 62 | 198 | 12.0 | 22.0 | 0.00 | 0.00 | 0.00 | 48 | 1016.5 |
| 20260503130504 | 50 | 193 | 6.0 | 13.0 | 0.00 | 0.00 | 0.00 | 70 | 1018.7 |
| 20260503081004 | 37 | 342 | 0.0 | 0.0 | 0.00 | 0.00 | 0.00 | 89 | 1018.5 |
| 20260503072504 | 37 | 342 | 0.0 | 0.0 | 0.00 | 0.00 | 0.00 | 89 | 1018.4 |
| 20260503055004 | 39 | 342 | 0.0 | 0.0 | 0.00 | 0.00 | 0.00 | 89 | 1018.9 |
| 20260503054504 | 39 | 342 | 0.0 | 0.0 | 0.00 | 0.00 | 0.00 | 89 | 1018.9 |
| 20260503054004 | 39 | 342 | 0.0 | 0.0 | 0.00 | 0.00 | 0.00 | 88 | 1018.9 |
| 20260503053504 | 39 | 342 | 0.0 | 0.0 | 0.00 | 0.00 | 0.00 | 88 | 1018.9 |
| 20260503053004 | 39 | 342 | 0.0 | 0.0 | 0.00 | 0.00 | 0.00 | 88 | 1018.9 |
| 20260503052504 | 39 | 342 | 0.0 | 0.0 | 0.00 | 0.00 | 0.00 | 87 | 1018.9 |
| 20260503052004 | 39 | 342 | 0.0 | 0.0 | 0.00 | 0.00 | 0.00 | 87 | 1018.8 |
| 20260503051004 | 39 | 342 | 0.0 | 0.0 | 0.00 | 0.00 | 0.00 | 87 | 1018.9 |
| 20260503050005 | 39 | 342 | 0.0 | 0.0 | 0.00 | 0.00 | 0.00 | 85 | 1018.8 |
| 20260503044504 | 39 | 342 | 0.0 | 0.0 | 0.00 | 0.00 | 0.00 | 84 | 1018.8 |
| 20260503043004 | 40 | 342 | 0.0 | 0.0 | 0.00 | 0.00 | 0.00 | 84 | 1018.8 |
| 20260503042504 | 40 | 342 | 0.0 | 0.0 | 0.00 | 0.00 | 0.00 | 84 | 1018.8 |
| 20260503042004 | 40 | 342 | 0.0 | 0.0 | 0.00 | 0.00 | 0.00 | 84 | 1018.8 |
| 20260503041004 | 40 | 342 | 0.0 | 0.0 | 0.00 | 0.00 | 0.00 | 84 | 1018.8 |
| 20260503040504 | 40 | 342 | 0.0 | 0.0 | 0.00 | 0.00 | 0.00 | 84 | 1018.8 |
| 20260503040003 | 40 | 342 | 0.0 | 0.0 | 0.00 | 0.00 | 0.00 | 83 | 1018.9 |
| 20260503034504 | 40 | 342 | 0.0 | 0.0 | 0.00 | 0.00 | 0.00 | 80 | 1019.0 |
| 20260503033004 | 41 | 342 | 0.0 | 0.0 | 0.00 | 0.00 | 0.00 | 76 | 1018.9 |
| 20260503032004 | 41 | 342 | 0.0 | 0.0 | 0.00 | 0.00 | 0.00 | 74 | 1018.9 |
| 20260503030504 | 42 | 342 | 0.0 | 0.0 | 0.00 | 0.00 | 0.00 | 74 | 1018.8 |
| 20260503030004 | 42 | 342 | 0.0 | 0.0 | 0.00 | 0.00 | 0.00 | 72 | 1018.8 |
| 20260503025504 | 42 | 342 | 0.0 | 0.0 | 0.00 | 0.00 | 0.00 | 72 | 1018.8 |
| 20260503025004 | 42 | 342 | 0.0 | 0.0 | 0.00 | 0.00 | 0.00 | 71 | 1018.8 |
| 20260503024004 | 43 | 342 | 0.0 | 0.0 | 0.00 | 0.00 | 0.00 | 71 | 1018.8 |
| 20260503023004 | 43 | 342 | 0.0 | 0.0 | 0.00 | 0.00 | 0.00 | 71 | 1018.8 |
| 20260503022004 | 44 | 342 | 0.0 | 0.0 | 0.00 | 0.00 | 0.00 | 67 | 1018.7 |
| 20260503021504 | 44 | 342 | 0.0 | 0.0 | 0.00 | 0.00 | 0.00 | 68 | 1018.7 |
| 20260503021004 | 44 | 342 | 0.0 | 0.0 | 0.00 | 0.00 | 0.00 | 68 | 1018.7 |
| 20260503020003 | 45 | 342 | 0.0 | 0.0 | 0.00 | 0.00 | 0.00 | 65 | 1018.6 |
| 20260503014004 | 46 | 342 | 0.0 | 0.0 | 0.00 | 0.00 | 0.00 | 64 | 1018.4 |
| 20260503011504 | 48 | 343 | 0.0 | 0.0 | 0.00 | 0.00 | 0.00 | 51 | 1018.1 |
| 20260503010004 | 50 | 343 | 0.0 | 0.0 | 0.00 | 0.00 | 0.00 | 50 | 1018.1 |
| 20260503005503 | 50 | 343 | 0.0 | 0.0 | 0.00 | 0.00 | 0.00 | 46 | 1018.1 |
| 20260503004505 | 51 | 343 | 0.0 | 0.0 | 0.00 | 0.00 | 0.00 | 44 | 1018.0 |
| 20260503003003 | 52 | 343 | 0.0 | 3.0 | 0.00 | 0.00 | 0.00 | 44 | 1018.0 |
| 20260503002504 | 52 | 343 | 0.0 | 3.0 | 0.00 | 0.00 | 0.00 | 38 | 1018.0 |
| 20260503002004 | 52 | 343 | 0.0 | 3.0 | 0.00 | 0.00 | 0.00 | 40 | 1018.0 |
| 20260503000503 | 53 | 10 | 2.0 | 5.0 | 0.00 | 0.00 | 0.00 | 37 | 1017.9 |
| 20260503000004 | 53 | 5 | 2.0 | 7.0 | 0.00 | 0.00 | 0.00 | 35 | 1017.9 |
| 20260502235504 | 54 | 337 | 3.0 | 7.0 | 0.00 | 0.00 | 0.00 | 34 | 1017.9 |
| 20260502234504 | 54 | 333 | 1.0 | 6.0 | 0.00 | 0.00 | 0.00 | 36 | 1017.9 |
| 20260502234004 | 54 | 356 | 1.0 | 6.0 | 0.00 | 0.00 | 0.00 | 34 | 1017.9 |
| 20260502233004 | 54 | 251 | 2.0 | 12.0 | 0.00 | 0.00 | 0.00 | 34 | 1017.9 |
| 20260502232504 | 54 | 332 | 3.0 | 12.0 | 0.00 | 0.00 | 0.00 | 35 | 1017.9 |
| 20260502230504 | 55 | 295 | 3.0 | 8.0 | 0.00 | 0.00 | 0.00 | 34 | 1017.9 |
| 20260502230004 | 55 | 323 | 1.0 | 12.0 | 0.00 | 0.00 | 0.00 | 34 | 1017.9 |
| 20260502225003 | 55 | 347 | 5.0 | 12.0 | 0.00 | 0.00 | 0.00 | 35 | 1017.9 |
| 20260502224504 | 55 | 8 | 2.0 | 12.0 | 0.00 | 0.00 | 0.00 | 33 | 1017.8 |
| 20260502224004 | 55 | 338 | 4.0 | 12.0 | 0.00 | 0.00 | 0.00 | 33 | 1017.7 |
| 20260502223504 | 55 | 315 | 2.0 | 9.0 | 0.00 | 0.00 | 0.00 | 32 | 1017.7 |
| 20260502223004 | 55 | 23 | 3.0 | 9.0 | 0.00 | 0.00 | 0.00 | 32 | 1017.7 |
| 20260502220004 | 56 | 329 | 2.0 | 9.0 | 0.00 | 0.00 | 0.00 | 37 | 1017.7 |
| 20260502215004 | 56 | 322 | 2.0 | 14.0 | 0.00 | 0.00 | 0.00 | 36 | 1017.8 |
| 20260502213503 | 55 | 337 | 3.0 | 16.0 | 0.00 | 0.00 | 0.00 | 32 | 1017.8 |
| 20260502213003 | 56 | 346 | 3.0 | 16.0 | 0.00 | 0.00 | 0.00 | 31 | 1017.8 |
| 20260502212004 | 56 | 359 | 1.0 | 9.0 | 0.00 | 0.00 | 0.00 | 32 | 1017.8 |
| 20260502210504 | 56 | 348 | 4.0 | 12.0 | 0.00 | 0.00 | 0.00 | 31 | 1017.8 |
| 20260502210004 | 56 | 334 | 3.0 | 14.0 | 0.00 | 0.00 | 0.00 | 33 | 1017.9 |
| 20260502205003 | 58 | 342 | 4.0 | 10.0 | 0.00 | 0.00 | 0.00 | 32 | 1017.8 |
| 20260502204504 | 57 | 352 | 3.0 | 10.0 | 0.00 | 0.00 | 0.00 | 34 | 1017.8 |
| 20260502203503 | 56 | 349 | 4.0 | 12.0 | 0.00 | 0.00 | 0.00 | 34 | 1018.0 |
| 20260502202504 | 56 | 334 | 5.0 | 12.0 | 0.00 | 0.00 | 0.00 | 33 | 1018.1 |
| 20260502200504 | 56 | 350 | 2.0 | 10.0 | 0.00 | 0.00 | 0.00 | 34 | 1018.2 |